This demonstration page uses our WeatherBlox Daily Observations layout. Learn more.

Left ArrowRight Arrow

41.86663, -103.66717

Hourly Observations for August 11, 2022

Temp ( °F °C ) Dew Point ( °F °C ) Humidity (%) Winds ( mph kmh ) Pressure ( in mb ) Visibility ( mi km ) Precip ( " mm )
12:53 am 00:53 Clear 79 26.1 53 11.7 41 41 ESE 9 15 30.03 1017 10 16 0.00 0.00
1:53 am 01:53 Clear 74 23.3 54 12.2 50 50 E 9 15 30.03 1017 10 16 0.00 0.00
2:53 am 02:53 Clear 75 23.9 55 12.8 50 50 SE 6 9 30.03 1017 10 16 0.00 0.00
3:53 am 03:53 Clear 75 23.9 55 12.8 50 50 SE 8 13 30.02 1017 10 16 0.00 0.00
4:53 am 04:53 Clear 75 23.9 54 12.2 48 48 SSE 13 20 30.01 1016 10 16 0.00 0.00
5:53 am 05:53 Clear 71 21.7 53 11.7 53 53 ESE 7 11 30.02 1017 10 16 0.00 0.00
6:53 am 06:53 Sunny 71 21.7 54 12.2 55 55 E 8 13 30.03 1017 10 16 0.00 0.00
7:53 am 07:53 Sunny 78 25.6 50 10 37 37 SE 7 11 30.04 1017 10 16 0.00 0.00
8:53 am 08:53 Sunny 83 28.3 52 11.1 34 34 S 6 9 30.03 1017 10 16 0.00 0.00
9:53 am 09:53 Sunny 86 30 55 12.8 35 35 E 7 11 30.02 1017 10 16 0.00 0.00
10:53 am 10:53 Sunny 91 32.8 55 12.8 30 30 SSE 8 13 30.00 1016 10 16 0.00 0.00
11:53 am 11:53 undefined 97 36.1 52 11.1 22 22 undefined N/A 29.98 1015 N/A 0.00 0.00
12:53 pm 12:53 undefined 97 36.1 50 10 21 21 S 9 15 29.95 1014 10 16 0.00 0.00
1:53 pm 13:53 Sunny 98 36.7 52 11.1 21 21 ESE 10 17 29.93 1013 10 16 0.00 0.00
2:53 pm 14:53 Sunny 99 37.2 50 10 19 19 S 9 15 29.90 1013 10 16 0.00 0.00
3:44 pm 15:44 Sunny 99 37.2 55 12.8 23 23 E 10 17 29.65 1004 10 16 0.00 0.00
3:53 pm 15:53 Sunny 99 37.2 55 12.8 23 23 SE 14 22 29.87 1012 10 16 0.00 0.00
4:53 pm 16:53 Sunny 98 36.7 58 14.4 27 27 E 14 22 29.86 1011 10 16 0.00 0.00
5:53 pm 17:53 Sunny 95 35 59 15 30 30 E 14 22 29.85 1011 10 16 0.00 0.00
6:53 pm 18:53 Sunny 91 32.8 60 15.6 36 36 E 10 17 29.86 1011 10 16 0.00 0.00
7:53 pm 19:53 Sunny 84 28.9 58 14.4 41 41 E 10 17 29.88 1012 10 16 0.00 0.00
8:53 pm 20:53 Clear 81 27.2 54 12.2 39 39 E 9 15 29.91 1013 10 16 0.00 0.00
9:53 pm 21:53 Mostly Clear 77 25 54 12.2 45 45 undefined N/A 29.97 1015 10 16 0.00 0.00
10:53 pm 22:53 Clear 77 25 54 12.2 45 45 E 3 6 29.95 1014 10 16 0.00 0.00
11:53 pm 23:53 Clear 80 26.7 50 10 35 35 SE 12 19 29.92 1013 10 16 0.00 0.00

Powered by AerisWeather